OCN1QW EDDF-EDDM

Flight info

Callsign OCN1QW
Flight time 0h 37m
Altitude 21000
Route CINDY8S/18 CINDY Z74 HAREM T104 ROKIL ROKIL1B
Aircraft A320/M-SDE3FGHIRWY/LB1

Departure

Time 2026-05-05 22:07
Airport Frankfurt Main Airport (EDDF)

Arrival

Time 2026-05-05 22:45
Airport Munich Airport (EDDM)
Time Latitude Longitude Altitude Speed Heading
2026-05-05 21:56 50.04064 8.55617 352 ft 0 kts 159°
2026-05-05 22:03 50.04047 8.55628 352 ft 6 kts 159°
2026-05-05 22:03 50.03982 8.55634 349 ft 13 kts 221°
2026-05-05 22:03 50.03938 8.55484 349 ft 16 kts 250°
2026-05-05 22:04 50.03893 8.55297 348 ft 19 kts 250°
2026-05-05 22:04 50.03841 8.55081 345 ft 23 kts 250°
2026-05-05 22:04 50.03781 8.54832 343 ft 26 kts 250°
2026-05-05 22:04 50.03714 8.54548 338 ft 29 kts 250°
2026-05-05 22:05 50.03643 8.54253 338 ft 28 kts 250°
2026-05-05 22:05 50.03577 8.53974 341 ft 27 kts 250°
2026-05-05 22:05 50.03511 8.53700 343 ft 26 kts 250°
2026-05-05 22:05 50.03446 8.53427 340 ft 27 kts 250°
2026-05-05 22:06 50.03376 8.53141 336 ft 29 kts 250°
2026-05-05 22:06 50.03307 8.52855 337 ft 27 kts 254°
2026-05-05 22:06 50.03210 8.52612 335 ft 26 kts 203°
2026-05-05 22:06 50.03006 8.52597 331 ft 47 kts 180°
2026-05-05 22:07 50.02410 8.52603 327 ft 121 kts 180°
2026-05-05 22:07 50.01383 8.52601 523 ft 162 kts 181°
2026-05-05 22:07 50.00277 8.52596 1263 ft 162 kts 181°
2026-05-05 22:07 49.99167 8.52610 2078 ft 161 kts 182°
2026-05-05 22:08 49.98032 8.52626 2591 ft 171 kts 182°
2026-05-05 22:08 49.96812 8.52966 2988 ft 192 kts 154°
2026-05-05 22:08 49.95853 8.54539 3376 ft 217 kts 122°
2026-05-05 22:08 49.95108 8.56677 3815 ft 237 kts 120°
2026-05-05 22:09 49.94364 8.58987 4561 ft 245 kts 113°
2026-05-05 22:09 49.93958 8.61560 5331 ft 254 kts 98°
2026-05-05 22:09 49.93822 8.64370 5870 ft 271 kts 94°
2026-05-05 22:09 49.93713 8.67377 6450 ft 286 kts 99°
2026-05-05 22:10 49.93011 8.70221 7214 ft 287 kts 131°
2026-05-05 22:10 49.91530 8.72189 8117 ft 283 kts 149°
2026-05-05 22:10 49.89900 8.73903 8965 ft 288 kts 147°
2026-05-05 22:10 49.88408 8.76018 9795 ft 298 kts 134°
2026-05-05 22:11 49.87219 8.78672 10563 ft 308 kts 124°
2026-05-05 22:11 49.86172 8.81533 11307 ft 315 kts 122°
2026-05-05 22:11 49.85122 8.84502 12135 ft 318 kts 122°
2026-05-05 22:11 49.84058 8.87491 12955 ft 321 kts 122°
2026-05-05 22:12 49.82978 8.90499 13748 ft 323 kts 122°
2026-05-05 22:12 49.81885 8.93525 14521 ft 326 kts 122°
2026-05-05 22:12 49.80778 8.96575 15259 ft 329 kts 122°
2026-05-05 22:12 49.79655 8.99659 15948 ft 332 kts 122°
2026-05-05 22:13 49.78514 9.02790 16632 ft 336 kts 122°
2026-05-05 22:13 49.77371 9.05936 17309 ft 339 kts 121°
2026-05-05 22:13 49.76364 9.09237 17976 ft 344 kts 114°
2026-05-05 22:13 49.75601 9.12745 18626 ft 348 kts 108°
2026-05-05 22:14 49.74956 9.16338 19313 ft 348 kts 112°
2026-05-05 22:14 49.73933 9.19693 19979 ft 347 kts 124°
2026-05-05 22:14 49.72503 9.22668 20544 ft 346 kts 132°
2026-05-05 22:14 49.70924 9.25478 20787 ft 346 kts 134°
2026-05-05 22:15 49.69330 9.28251 20792 ft 345 kts 134°
2026-05-05 22:15 49.67744 9.31019 20796 ft 345 kts 133°
2026-05-05 22:15 49.66163 9.33792 20802 ft 345 kts 133°
2026-05-05 22:15 49.64584 9.36568 20805 ft 345 kts 133°
2026-05-05 22:16 49.63005 9.39347 20806 ft 345 kts 133°
2026-05-05 22:16 49.61425 9.42126 20805 ft 345 kts 133°
2026-05-05 22:16 49.59844 9.44905 20806 ft 346 kts 133°
2026-05-05 22:16 49.58264 9.47682 20803 ft 346 kts 133°
2026-05-05 22:17 49.56704 9.50421 20805 ft 346 kts 133°
2026-05-05 22:17 49.55122 9.53198 20811 ft 346 kts 133°
2026-05-05 22:17 49.53538 9.55975 20808 ft 346 kts 133°
2026-05-05 22:17 49.51951 9.58754 20812 ft 346 kts 133°
2026-05-05 22:18 49.50365 9.61531 20813 ft 346 kts 134°
2026-05-05 22:18 49.48777 9.64306 20808 ft 347 kts 133°
2026-05-05 22:18 49.47181 9.67092 20808 ft 347 kts 134°
2026-05-05 22:18 49.45588 9.69871 20814 ft 347 kts 134°
2026-05-05 22:19 49.43996 9.72646 20815 ft 347 kts 134°
2026-05-05 22:19 49.42403 9.75419 20819 ft 347 kts 134°
2026-05-05 22:19 49.40808 9.78190 20810 ft 347 kts 134°
2026-05-05 22:19 49.39213 9.80958 20817 ft 347 kts 134°
2026-05-05 22:20 49.37618 9.83725 20822 ft 347 kts 134°
2026-05-05 22:20 49.36016 9.86490 20821 ft 347 kts 134°
2026-05-05 22:20 49.34436 9.89215 20827 ft 348 kts 134°
2026-05-05 22:20 49.32832 9.91981 20829 ft 347 kts 134°
2026-05-05 22:21 49.31230 9.94742 20827 ft 347 kts 134°
2026-05-05 22:21 49.29628 9.97499 20828 ft 347 kts 134°
2026-05-05 22:21 49.28019 10.00265 20829 ft 347 kts 134°
2026-05-05 22:21 49.26416 10.03021 20829 ft 347 kts 134°
2026-05-05 22:22 49.24815 10.05773 20829 ft 347 kts 135°
2026-05-05 22:22 49.23232 10.08486 20825 ft 347 kts 135°
2026-05-05 22:22 49.21625 10.11237 20826 ft 347 kts 135°
2026-05-05 22:22 49.20013 10.13994 20821 ft 348 kts 135°
2026-05-05 22:23 49.18404 10.16744 20820 ft 348 kts 135°
2026-05-05 22:23 49.16798 10.19491 20815 ft 348 kts 135°
2026-05-05 22:23 49.15190 10.22235 20813 ft 347 kts 135°
2026-05-05 22:23 49.13576 10.24965 20806 ft 347 kts 136°
2026-05-05 22:24 49.11927 10.27635 20815 ft 347 kts 136°
2026-05-05 22:24 49.10266 10.30292 20812 ft 347 kts 136°
2026-05-05 22:24 49.08606 10.32947 20807 ft 347 kts 136°
2026-05-05 22:24 49.06941 10.35617 20808 ft 347 kts 136°
2026-05-05 22:25 49.05284 10.38277 20810 ft 347 kts 136°
2026-05-05 22:25 49.03625 10.40939 20808 ft 348 kts 136°
2026-05-05 22:25 49.01963 10.43601 20807 ft 348 kts 136°
2026-05-05 22:25 49.00302 10.46264 20811 ft 348 kts 136°
2026-05-05 22:26 48.98631 10.48932 20814 ft 348 kts 137°
2026-05-05 22:26 48.96964 10.51586 20808 ft 348 kts 136°
2026-05-05 22:26 48.95296 10.54242 20568 ft 347 kts 137°
2026-05-05 22:26 48.93638 10.56881 20311 ft 345 kts 136°
2026-05-05 22:27 48.91987 10.59508 20055 ft 344 kts 137°
2026-05-05 22:27 48.90341 10.62123 19799 ft 343 kts 137°
2026-05-05 22:27 48.88699 10.64733 19540 ft 342 kts 137°
2026-05-05 22:27 48.87058 10.67336 19283 ft 340 kts 137°
2026-05-05 22:28 48.85426 10.69919 19028 ft 340 kts 137°
2026-05-05 22:28 48.83799 10.72494 18775 ft 338 kts 137°
2026-05-05 22:28 48.82177 10.75059 18521 ft 337 kts 137°
2026-05-05 22:28 48.80558 10.77616 18268 ft 337 kts 137°
2026-05-05 22:29 48.78941 10.80162 18014 ft 336 kts 137°
2026-05-05 22:29 48.77325 10.82700 17760 ft 335 kts 137°
2026-05-05 22:29 48.75713 10.85229 17505 ft 334 kts 137°
2026-05-05 22:29 48.74103 10.87751 17255 ft 333 kts 137°
2026-05-05 22:30 48.72498 10.90264 17003 ft 332 kts 137°
2026-05-05 22:30 48.70895 10.92768 16746 ft 332 kts 137°
2026-05-05 22:30 48.69297 10.95266 16490 ft 331 kts 137°
2026-05-05 22:30 48.67702 10.97753 16241 ft 330 kts 137°
2026-05-05 22:31 48.66109 11.00235 15994 ft 328 kts 137°
2026-05-05 22:31 48.64524 11.02700 15739 ft 327 kts 137°
2026-05-05 22:31 48.62943 11.05156 15489 ft 326 kts 137°
2026-05-05 22:31 48.61365 11.07604 15256 ft 326 kts 137°
2026-05-05 22:32 48.59790 11.10046 15014 ft 325 kts 137°
2026-05-05 22:32 48.58163 11.12384 14789 ft 323 kts 142°
2026-05-05 22:32 48.56415 11.14473 14490 ft 320 kts 148°
2026-05-05 22:32 48.54591 11.16361 14117 ft 318 kts 149°
2026-05-05 22:33 48.52776 11.18246 13736 ft 319 kts 144°
2026-05-05 22:33 48.51335 11.20786 13314 ft 326 kts 120°
2026-05-05 22:33 48.50618 11.24017 12917 ft 328 kts 104°
2026-05-05 22:33 48.50174 11.27372 12541 ft 327 kts 103°
2026-05-05 22:34 48.49748 11.30715 12166 ft 325 kts 103°
2026-05-05 22:34 48.49311 11.34067 11790 ft 339 kts 103°
2026-05-05 22:34 48.48811 11.37772 11339 ft 384 kts 103°
2026-05-05 22:34 48.48254 11.41848 10841 ft 407 kts 103°
2026-05-05 22:35 48.47690 11.45959 10374 ft 408 kts 103°
2026-05-05 22:35 48.47109 11.50184 9889 ft 407 kts 103°
2026-05-05 22:35 48.46543 11.54270 9547 ft 405 kts 103°
2026-05-05 22:35 48.45961 11.58454 9108 ft 403 kts 103°
2026-05-05 22:36 48.45396 11.62497 8654 ft 400 kts 102°
2026-05-05 22:36 48.44824 11.66578 8198 ft 398 kts 103°
2026-05-05 22:36 48.44255 11.70628 7746 ft 395 kts 103°
2026-05-05 22:36 48.43692 11.74631 7253 ft 385 kts 103°
2026-05-05 22:37 48.43144 11.78513 6759 ft 376 kts 103°
2026-05-05 22:37 48.42607 11.82294 6319 ft 366 kts 103°
2026-05-05 22:37 48.42084 11.85983 5927 ft 356 kts 103°
2026-05-05 22:37 48.41577 11.89582 5494 ft 349 kts 101°
2026-05-05 22:38 48.41405 11.93160 5110 ft 340 kts 88°
2026-05-05 22:38 48.41551 11.96630 4981 ft 324 kts 85°
2026-05-05 22:38 48.41738 11.99915 4976 ft 306 kts 84°
2026-05-05 22:38 48.41914 12.03024 4975 ft 289 kts 86°
2026-05-05 22:39 48.41674 12.05912 4962 ft 272 kts 113°
2026-05-05 22:39 48.40656 12.08150 4964 ft 251 kts 143°
2026-05-05 22:39 48.39178 12.09242 4964 ft 228 kts 176°
2026-05-05 22:39 48.37700 12.09013 4885 ft 207 kts 210°
2026-05-05 22:40 48.36679 12.07672 4692 ft 193 kts 245°
2026-05-05 22:40 48.36433 12.05764 4443 ft 187 kts 276°
2026-05-05 22:40 48.36652 12.03886 4305 ft 177 kts 282°
2026-05-05 22:40 48.36927 12.02104 4049 ft 174 kts 282°
2026-05-05 22:41 48.37204 12.00363 3798 ft 170 kts 283°
2026-05-05 22:41 48.37465 11.98661 3563 ft 165 kts 280°
2026-05-05 22:41 48.37595 11.96980 3348 ft 160 kts 273°
2026-05-05 22:41 48.37597 11.95344 3145 ft 154 kts 269°
2026-05-05 22:42 48.37558 11.93771 2952 ft 148 kts 267°
2026-05-05 22:42 48.37476 11.92267 2764 ft 142 kts 265°
2026-05-05 22:42 48.37372 11.90847 2592 ft 135 kts 264°
2026-05-05 22:42 48.37263 11.89463 2431 ft 132 kts 263°
2026-05-05 22:43 48.37154 11.88105 2242 ft 130 kts 263°
2026-05-05 22:43 48.37046 11.86756 2081 ft 130 kts 263°
2026-05-05 22:43 48.36949 11.85407 1927 ft 130 kts 262°
2026-05-05 22:43 48.36842 11.84059 1746 ft 129 kts 262°
2026-05-05 22:44 48.36742 11.82722 1559 ft 127 kts 262°
2026-05-05 22:44 48.36633 11.81400 1448 ft 124 kts 263°
2026-05-05 22:44 48.36545 11.80273 1452 ft 97 kts 263°
2026-05-05 22:44 48.36477 11.79362 1457 ft 77 kts 263°
2026-05-05 22:45 48.36421 11.78642 1459 ft 63 kts 263°
2026-05-05 22:45 48.36376 11.78214 1460 ft 26 kts 248°
2026-05-05 22:45 48.36288 11.77988 1461 ft 24 kts 231°
2026-05-05 22:45 48.36185 11.77777 1458 ft 25 kts 233°
2026-05-05 22:46 48.36058 11.77660 1458 ft 20 kts 175°
2026-05-05 22:46 48.35914 11.77684 1457 ft 21 kts 173°
2026-05-05 22:46 48.35767 11.77709 1457 ft 21 kts 173°
2026-05-05 22:46 48.35706 11.77703 1458 ft 6 kts 236°
2026-05-05 22:47 48.35698 11.77638 1458 ft 3 kts 263°
2026-05-05 22:47 48.35698 11.77636 1458 ft 2 kts 263°
2026-05-05 22:47 48.35697 11.77628 1459 ft 0 kts 262°
2026-05-05 22:47 48.35697 11.77623 1459 ft 0 kts 263°
2026-05-05 22:48 48.35696 11.77619 1460 ft 0 kts 263°